Location: Liscomb Game Sanctuary
(45.1633°N, 62.5575°W)
Time: 07:09:21
(UTC-04:00)

Amateur Radio Satellites - All Passes

Search period start: 26 November 2014 06:39
Search period end: 27 November 2014 06:39
Location: Liscomb Game Sanctuary, 45.1633°N, 62.5575°W

Satellite Date Start Highest point End Downlink Frequencies (MHz)
Time Altitude Azimuth
AIST 2 26 Nov 06:42:09 06:45:00 17° 249° (WSW) 06:47:49 435.215
CUTE-I 26 Nov 06:48:32 06:53:53 87° 286° (WNW) 06:59:12 437.470
ISS 26 Nov 07:04:36 07:05:52 12° 228° (SW) 07:07:08 145.825
AO-7 26 Nov 07:12:22 07:17:46 19° 315° (NW) 07:23:11 29.400- 29.500
JAS-2 26 Nov 07:22:46 07:28:03 23° 305° (NW) 07:32:57 435.910
AIST 1 26 Nov 07:25:13 07:29:17 38° 268° (W) 07:33:18
HO-68 26 Nov 07:39:13 07:43:12 15° 87° (E) 07:47:10 435.675
CUBESAT XI-V 26 Nov 07:40:56 07:42:59 13° 272° (W) 07:45:02 437.345
Cubesat XI-IV 26 Nov 07:47:44 07:52:15 29° 296° (WNW) 07:56:44 437.490
GONETS M04 26 Nov 07:56:04 08:04:34 57° 90° (E) 08:13:08
CUTE 1.7 & AOD 2 26 Nov 08:08:35 08:11:12 16° 91° (E) 08:13:48 437.475
BRITE-PL 26 Nov 08:30:17 08:33:40 24° 94° (E) 08:37:04 437.365/2234.400
CUTE-I 26 Nov 08:30:27 08:33:10 14° 304° (NW) 08:35:53 437.470
ANTELSAT 26 Nov 08:37:28 08:39:33 14° 60° (ENE) 08:41:39 437.575/2403.000
SEEDS 26 Nov 08:40:34 08:44:19 29° 95° (E) 08:48:03 437.485
Oscar 11 26 Nov 08:46:21 08:48:32 14° 89° (E) 08:50:42 145.826/435.025
POLYITAN 1 26 Nov 08:53:06 08:55:17 14° 61° (ENE) 08:57:29 437.675
QB50P2 26 Nov 08:54:53 08:57:13 15° 61° (ENE) 08:59:33 145.880/145.840
DOVE 4 26 Nov 08:56:02 08:59:30 25° 95° (E) 09:03:02 437.250
AAUSAT CUBESAT 2 26 Nov 08:57:02 09:00:52 32° 96° (E) 09:04:42 437.432
DUCHIFAT 1 26 Nov 09:00:29 09:03:06 16° 62° (ENE) 09:05:43 145.980
DELFI C3 26 Nov 09:02:19 09:04:58 16° 91° (E) 09:07:35 145.870
CUBEBUG 2 26 Nov 09:05:07 09:06:59 13° 90° (E) 09:08:51 437.445
UWE-3 26 Nov 09:05:45 09:06:48 11° 89° (E) 09:07:51 435.000/436.395/437.385
CANX-2 26 Nov 09:08:30 09:12:48 73° 102° (ESE) 09:17:06 2200.000
DX 1 26 Nov 09:10:04 09:13:21 20° 93° (E) 09:16:35 434.975-435.025
COMPASS 1 26 Nov 09:12:14 09:16:25 54° 100° (E) 09:20:34 437.405
NANOSAT C BR1 26 Nov 09:18:57 09:22:23 24° 66° (ENE) 09:25:50 145.865
HO-68 26 Nov 09:24:45 09:31:59 82° 106° (ESE) 09:39:09 435.675
QB50P1 26 Nov 09:28:33 09:32:16 30° 68° (ENE) 09:35:59 145.935-145.965
TIGRISAT 26 Nov 09:29:17 09:33:17 42° 70° (ENE) 09:37:18 435.000
CINEMA 3 26 Nov 09:30:22 09:34:15 35° 97° (E) 09:38:14 145.822/145.860
BUGSAT 1 26 Nov 09:38:03 09:41:50 32° 68° (ENE) 09:45:35 437.445
GOMX 1 26 Nov 09:38:26 09:42:37 86° 285° (WNW) 09:46:51 467.674
ZACube-1 26 Nov 09:38:33 09:41:49 21° 94° (E) 09:45:07 437.345
VELOX 1 26 Nov 09:41:21 09:43:48 15° 90° (E) 09:46:14 145.980
UNISAT 6 26 Nov 09:42:50 09:47:02 59° 73° (ENE) 09:51:15 437.425
CUTE 1.7 & AOD 2 26 Nov 09:43:16 09:47:27 52° 288° (WNW) 09:51:37 437.475
POPSAT HIP 1 26 Nov 09:52:52 09:57:00 53° 72° (ENE) 10:01:09 437.405
GONETS M04 26 Nov 09:53:51 10:01:47 36° 292° (WNW) 10:09:48
AISAT 26 Nov 10:06:43 10:10:29 27° 95° (E) 10:14:13 437.250
BRITE-PL 26 Nov 10:08:37 10:12:16 30° 292° (WNW) 10:15:55 437.365/2234.400
UKube-1 26 Nov 10:09:37 10:13:59 84° 104° (ESE) 10:18:19 .
ANTELSAT 26 Nov 10:11:36 10:15:51 68° 258° (WSW) 10:20:07 437.575/2403.000
FUNcube-1 26 Nov 10:12:57 10:17:03 48° 99° (E) 10:21:13 145.935
SEEDS 26 Nov 10:16:27 10:20:06 28° 292° (WNW) 10:23:45 437.485
CUBEBUG 1 26 Nov 10:19:59 10:22:12 14° 90° (E) 10:24:24 437.445
Oscar 11 26 Nov 10:20:49 10:25:07 62° 287° (WNW) 10:29:25 145.826/435.025
POLYITAN 1 26 Nov 10:26:30 10:30:45 66° 258° (WSW) 10:34:59 437.675
QB50P2 26 Nov 10:28:26 10:32:40 63° 259° (WSW) 10:36:54 145.880/145.840
SO-50 26 Nov 10:29:42 10:32:59 18° 33° (NNE) 10:36:18 436.795
AAUSAT CUBESAT 2 26 Nov 10:32:58 10:36:26 25° 293° (WNW) 10:39:53 437.432
DOVE 4 26 Nov 10:33:40 10:37:19 30° 291° (WNW) 10:41:02 437.250
DUCHIFAT 1 26 Nov 10:34:24 10:38:34 55° 260° (W) 10:42:45 145.980
DELFI C3 26 Nov 10:36:32 10:40:31 47° 288° (WNW) 10:44:29 145.870
UWE-3 26 Nov 10:39:37 10:43:50 75° 285° (WNW) 10:48:09 435.000/436.395/437.385
CUBEBUG 2 26 Nov 10:39:55 10:44:06 64° 286° (WNW) 10:48:23 437.445
50 SAT 26 Nov 10:42:42 10:46:41 51° 100° (E) 10:50:40 437.505
DX 1 26 Nov 10:45:40 10:49:46 41° 291° (WNW) 10:53:49 434.975-435.025
CANX-2 26 Nov 10:46:14 10:48:11 13° 299° (WNW) 10:50:08 2200.000
COMPASS 1 26 Nov 10:49:06 10:51:45 16° 297° (WNW) 10:54:23 437.405
NANOSAT C BR1 26 Nov 10:54:16 10:58:08 34° 263° (W) 11:02:01 145.865
HUMSAT D 26 Nov 10:55:27 10:59:39 87° 103° (ESE) 11:03:51 437.325/437.525
QB50P1 26 Nov 11:04:32 11:08:09 27° 265° (W) 11:11:47 145.935-145.965
TIGRISAT 26 Nov 11:07:14 11:10:15 19° 268° (W) 11:13:18 435.000
CINEMA 3 26 Nov 11:08:02 11:11:19 23° 294° (WNW) 11:14:40 145.822/145.860
HO-68 26 Nov 11:13:32 11:18:55 24° 306° (NW) 11:24:17 435.675
BUGSAT 1 26 Nov 11:13:48 11:17:21 25° 265° (W) 11:20:53 437.445
ZACube-1 26 Nov 11:14:25 11:18:19 37° 290° (WNW) 11:22:17 437.345
ESTCUBE 1 26 Nov 11:15:51 11:20:19 54° 100° (E) 11:24:45 437.505/2401.250
VELOX 1 26 Nov 11:16:25 11:20:48 60° 288° (WNW) 11:25:07 145.980
UNISAT 6 26 Nov 11:22:08 11:24:15 13° 270° (W) 11:26:22 437.425
POPSAT HIP 1 26 Nov 11:30:45 11:33:15 15° 269° (W) 11:35:45 437.405
TISAT 1 26 Nov 11:31:26 11:34:34 20° 93° (E) 11:37:41 437.305
SPROUT 26 Nov 11:41:54 11:45:21 23° 94° (E) 11:48:47 437.525
AISAT 26 Nov 11:43:12 11:47:09 32° 292° (WNW) 11:51:04 437.250
UKube-1 26 Nov 11:47:56 11:49:30 12° 302° (WNW) 11:51:04 .
FUNcube-1 26 Nov 11:50:15 11:53:05 18° 296° (WNW) 11:55:57 145.935
CUBEBUG 1 26 Nov 11:54:41 11:59:01 62° 287° (WNW) 12:03:17 437.445
Gurwin Techsat 1B 26 Nov 12:08:17 12:09:34 11° 53° (NE) 12:10:50 435.225
SO-50 26 Nov 12:09:25 12:14:19 79° 54° (NE) 12:19:13 436.795
YUBILEINY 26 Nov 12:13:49 12:21:06 28° 64° (ENE) 12:28:17 435.215
Oscar 19 26 Nov 12:15:30 12:20:21 46° 69° (ENE) 12:25:14 437.125/150
50 SAT 26 Nov 12:19:11 12:21:37 16° 297° (WNW) 12:24:04 437.505
ITUPSAT 1 26 Nov 12:27:28 12:29:41 13° 89° (E) 12:31:52 437.325
HUMSAT D 26 Nov 12:34:01 12:34:49 11° 301° (WNW) 12:35:37 437.325/437.525
SWISSCUBE 26 Nov 12:37:25 12:40:42 18° 91° (E) 12:43:58 437.505
AO-7 26 Nov 12:40:41 12:44:02 13° 38° (NE) 12:47:23 29.400- 29.500
ESTCUBE 1 26 Nov 12:53:43 12:56:48 18° 298° (WNW) 12:59:51 437.505/2401.250
CUSAT 1 26 Nov 12:59:20 13:01:58 68° 99° (E) 13:04:34 437.405
AUBIESAT-1 26 Nov 13:04:01 13:08:24 32° 100° (E) 13:12:41 437.475
TISAT 1 26 Nov 13:06:38 13:10:34 39° 290° (WNW) 13:14:28 437.305
BEESAT 26 Nov 13:07:40 13:11:59 32° 96° (E) 13:16:16 436.000
ITAMSAT 1 26 Nov 13:09:04 13:14:10 57° 71° (ENE) 13:19:17 435.822/435.867
M-CUBED/EXP-1 PRIME 26 Nov 13:09:21 13:13:58 38° 102° (ESE) 13:18:30 437.505
SPROUT 26 Nov 13:17:38 13:21:31 34° 291° (WNW) 13:25:23 437.525
DANDE 26 Nov 13:26:53 13:29:33 51° 282° (WNW) 13:32:06 436.750
KKS-1 26 Nov 13:30:28 13:31:52 11° 88° (E) 13:33:17 437.445
VERMONT LUNAR 26 Nov 13:41:13 13:42:07 11° 149° (SSE) 13:43:00 437.305
Gurwin Techsat 1B 26 Nov 13:43:16 13:48:32 66° 72° (ENE) 13:53:49 435.225
HORYU 2 26 Nov 13:46:16 13:50:08 30° 67° (ENE) 13:54:01 437.375
SO-50 26 Nov 13:51:29 13:54:16 15° 251° (WSW) 13:57:04 436.795
Oscar 19 26 Nov 13:55:48 13:59:54 24° 267° (W) 14:04:02 437.125/150
ITUPSAT 1 26 Nov 14:03:19 14:08:09 76° 286° (WNW) 14:12:55 437.325
JAS-2 26 Nov 14:09:46 14:12:48 13° 46° (NE) 14:15:51 435.910
YUBILEINY 26 Nov 14:10:03 14:18:43 71° 266° (W) 14:27:19 435.215
SWISSCUBE 26 Nov 14:14:13 14:18:55 55° 289° (WNW) 14:23:35 437.505
STARS 26 Nov 14:23:29 14:27:15 28° 96° (E) 14:31:01 437.465
AO-7 26 Nov 14:27:00 14:34:47 47° 61° (ENE) 14:42:37 29.400- 29.500
AUBIESAT-1 26 Nov 14:38:53 14:43:22 36° 298° (WNW) 14:47:47 437.475
M-CUBED/EXP-1 PRIME 26 Nov 14:44:33 14:48:52 31° 299° (WNW) 14:53:07 437.505
BEESAT 26 Nov 14:45:35 14:49:47 31° 294° (WNW) 14:53:58 436.000
ITAMSAT 1 26 Nov 14:50:14 14:54:01 20° 268° (W) 14:57:49 435.822/435.867
O/OREOS (USA 219) 26 Nov 15:01:05 15:05:19 40° 60° (ENE) 15:09:33 437.305
KKS-1 26 Nov 15:04:37 15:09:04 77° 286° (WNW) 15:13:29 437.445
PHONESAT 2.4 26 Nov 15:07:43 15:10:43 23° 160° (SSE) 15:13:44 2401.200-2431.200
RS-15 26 Nov 15:07:48 15:17:21 37° 107° (ESE) 15:26:53 29.354- 29.394
VERMONT LUNAR 26 Nov 15:16:43 15:19:53 29° 165° (SSE) 15:23:05 437.305
HORYU 2 26 Nov 15:22:56 15:26:47 29° 264° (W) 15:30:40 437.375
Gurwin Techsat 1B 26 Nov 15:25:29 15:28:59 18° 270° (W) 15:32:29 435.225
MaSat-1 26 Nov 15:31:58 15:34:49 50° 300° (WNW) 15:37:25 437.345
ITUPSAT 1 26 Nov 15:43:59 15:45:12 11° 304° (NW) 15:46:24 437.325
JAS-2 26 Nov 15:48:43 15:56:03 50° 66° (ENE) 16:03:32 435.910
Cubesat XI-IV 26 Nov 15:54:44 15:57:25 14° 56° (NE) 16:00:05 437.490
STARS 26 Nov 15:59:52 16:03:44 31° 293° (WNW) 16:07:36 437.465
YUBILEINY 26 Nov 16:09:44 16:13:49 14° 288° (WNW) 16:17:53 435.215
MOZHAYETS 4 26 Nov 16:13:14 16:16:33 19° 91° (E) 16:19:50
AO-7 26 Nov 16:19:48 16:27:36 45° 261° (W) 16:35:30 29.400- 29.500
CUTE-I 26 Nov 16:33:44 16:38:13 28° 63° (ENE) 16:42:43 437.470
O/OREOS (USA 219) 26 Nov 16:41:01 16:44:28 22° 258° (WSW) 16:47:56 437.305
PHONESAT 2.4 26 Nov 16:45:34 16:49:04 40° 177° (S) 16:52:35 2401.200-2431.200
VERMONT LUNAR 26 Nov 16:54:34 16:57:59 39° 182° (S) 17:01:24 437.305
PRISM 26 Nov 17:14:47 17:16:59 14° 90° (E) 17:19:11 437.425
RS-15 26 Nov 17:18:01 17:28:56 70° 311° (NW) 17:39:57 29.354- 29.394
Cubesat XI-IV 26 Nov 17:31:19 17:36:42 84° 74° (ENE) 17:42:05 437.490
JAS-2 26 Nov 17:34:00 17:41:08 41° 265° (W) 17:48:28 435.910
MOZHAYETS 4 26 Nov 17:49:32 17:54:03 50° 289° (WNW) 17:58:32
CUBESAT XI-V 26 Nov 17:56:26 17:59:26 17° 90° (E) 18:02:24 437.345
GONETS M04 26 Nov 18:03:55 18:11:36 32° 66° (ENE) 18:19:10
HO-68 26 Nov 18:11:03 18:15:28 18° 50° (NE) 18:19:53 435.675
CUTE-I 26 Nov 18:12:58 18:18:05 44° 261° (W) 18:23:12 437.470
PCSat 26 Nov 18:14:45 18:17:12 13° 103° (ESE) 18:19:39 145.827
AIST 1 26 Nov 18:22:27 18:23:45 11° 82° (E) 18:25:04
PHONESAT 2.4 26 Nov 18:24:10 18:27:29 31° 194° (SSW) 18:30:48 2401.200-2431.200
VERMONT LUNAR 26 Nov 18:33:03 18:36:02 24° 199° (SSW) 18:39:00 437.305
STRAND 1 26 Nov 18:40:00 18:44:50 41° 98° (E) 18:49:37 437.568
PRISM 26 Nov 18:48:44 18:52:56 59° 288° (WNW) 18:57:04 437.425
CUTE 1.7 & AOD 2 26 Nov 19:04:23 19:06:55 16° 62° (ENE) 19:09:27 437.475
GOMX 1 26 Nov 19:12:52 19:15:34 16° 63° (ENE) 19:18:11 467.674
Cubesat XI-IV 26 Nov 19:14:49 19:17:27 14° 272° (W) 19:20:06 437.490
CUBESAT XI-V 26 Nov 19:32:39 19:37:15 56° 288° (WNW) 19:41:47 437.345
UKube-1 26 Nov 19:34:05 19:35:31 11° 58° (ENE) 19:36:56 .
RS-15 26 Nov 19:34:16 19:43:40 31° 341° (NNW) 19:53:15 29.354- 29.394
SEEDS 26 Nov 19:35:21 19:38:53 27° 67° (ENE) 19:42:28 437.485
BRITE-PL 26 Nov 19:42:45 19:47:20 40° 71° (ENE) 19:51:36 437.365/2234.400
Oscar 11 26 Nov 19:43:41 19:46:07 15° 61° (ENE) 19:48:33 145.826/435.025
BEESAT 3 26 Nov 19:47:50 19:51:39 39° 118° (ESE) 19:55:33 437.485
AAUSAT CUBESAT 2 26 Nov 19:50:42 19:54:20 30° 68° (ENE) 19:57:59 437.432
DELFI C3 26 Nov 19:54:00 19:56:19 15° 62° (ENE) 19:58:39 145.870
PCSat 26 Nov 19:54:21 19:59:47 88° 121° (ESE) 20:05:15 145.827
HO-68 26 Nov 19:54:52 20:02:02 75° 70° (ENE) 20:09:14 435.675
AIST 1 26 Nov 19:56:22 20:00:45 73° 280° (W) 20:05:12
GONETS M04 26 Nov 20:00:21 20:09:04 65° 268° (W) 20:17:41
CANX-2 26 Nov 20:03:37 20:07:48 68° 74° (ENE) 20:12:01 2200.000
BEESAT 2 26 Nov 20:03:38 20:07:38 51° 120° (ESE) 20:11:42 435.950
DOVE 4 26 Nov 20:03:53 20:08:00 34° 70° (ENE) 20:11:55 437.250
PHONESAT 2.4 26 Nov 20:04:10 20:05:36 12° 210° (SSW) 20:07:03 2401.200-2431.200
UWE-3 26 Nov 20:05:29 20:07:18 13° 61° (ENE) 20:09:07 435.000/436.395/437.385
COMPASS 1 26 Nov 20:06:02 20:10:02 48° 72° (ENE) 20:14:05 437.405
CUBEBUG 2 26 Nov 20:06:07 20:08:28 15° 62° (ENE) 20:10:48 437.445
DX 1 26 Nov 20:07:51 20:11:25 25° 65° (ENE) 20:14:58 434.975-435.025
STRAND 1 26 Nov 20:19:33 20:23:51 28° 296° (WNW) 20:28:08 437.568
CINEMA 3 26 Nov 20:34:31 20:38:37 43° 71° (ENE) 20:42:38 145.822/145.860
ZACube-1 26 Nov 20:37:18 20:40:34 22° 66° (ENE) 20:43:48 437.345
CUTE 1.7 & AOD 2 26 Nov 20:38:17 20:42:25 55° 260° (W) 20:46:36 437.475
AIST 2 26 Nov 20:41:02 20:45:13 62° 121° (ESE) 20:49:28 435.215
VELOX 1 26 Nov 20:41:22 20:44:28 19° 63° (ENE) 20:47:34 145.980
GOMX 1 26 Nov 20:48:36 20:53:18 64° 259° (WSW) 20:57:44 467.674
UKube-1 26 Nov 21:06:39 21:11:00 87° 256° (WSW) 21:15:24 .
AISAT 26 Nov 21:07:01 21:11:00 33° 68° (ENE) 21:15:00 437.250
SEEDS 26 Nov 21:11:02 21:14:40 29° 265° (W) 21:18:21 437.485
FUNcube-1 26 Nov 21:11:13 21:15:15 49° 72° (ENE) 21:19:17 145.935
Oscar 11 26 Nov 21:17:33 21:21:48 62° 259° (W) 21:26:06 145.826/435.025
CUBEBUG 1 26 Nov 21:18:29 21:21:19 17° 62° (ENE) 21:24:08 437.445
BRITE-PL 26 Nov 21:21:58 21:25:57 24° 265° (W) 21:29:44 437.365/2234.400
BEESAT 3 26 Nov 21:26:26 21:30:00 27° 317° (NW) 21:33:36 437.485
AAUSAT CUBESAT 2 26 Nov 21:26:31 21:30:01 26° 265° (W) 21:33:32 437.432
DELFI C3 26 Nov 21:27:12 21:31:11 55° 260° (W) 21:35:14 145.870
50 SAT 26 Nov 21:33:44 21:37:34 43° 71° (ENE) 21:41:24 437.505
UNISAT 6 26 Nov 21:35:15 21:36:28 11° 88° (E) 21:37:42 437.425
UWE-3 26 Nov 21:39:08 21:43:20 70° 258° (WSW) 21:47:31 435.000/436.395/437.385
PCSat 26 Nov 21:39:57 21:43:56 20° 322° (NW) 21:47:56 145.827
CUBEBUG 2 26 Nov 21:40:34 21:44:46 58° 259° (W) 21:48:54 437.445
DOVE 4 26 Nov 21:42:07 21:45:50 24° 265° (W) 21:49:26 437.250
CANX-2 26 Nov 21:42:40 21:44:13 12° 272° (W) 21:45:47 2200.000
BEESAT 2 26 Nov 21:42:52 21:46:12 23° 319° (NW) 21:49:34 435.950
COMPASS 1 26 Nov 21:43:28 21:46:04 16° 269° (W) 21:48:41 437.405
DX 1 26 Nov 21:43:28 21:47:30 35° 262° (W) 21:51:33 434.975-435.025
HO-68 26 Nov 21:45:00 21:50:25 23° 269° (W) 21:55:52 435.675
HUMSAT D 26 Nov 21:49:49 21:53:56 81° 75° (ENE) 21:58:04 437.325/437.525
RS-15 26 Nov 21:51:04 22:00:26 30° 16° (NNE) 22:10:03 29.354- 29.394
GONETS M04 26 Nov 22:00:39 22:03:59 13° 289° (WNW) 22:07:20
ANTELSAT 26 Nov 22:02:13 22:05:40 22° 93° (E) 22:09:09 437.575/2403.000
POLYITAN 1 26 Nov 22:11:28 22:14:21 18° 92° (E) 22:17:12 437.675
ISS 26 Nov 22:11:59 22:12:40 11° 131° (SE) 22:13:21 145.825
ZACube-1 26 Nov 22:12:55 22:16:47 35° 263° (W) 22:20:37 437.345
CINEMA 3 26 Nov 22:12:59 22:16:03 19° 267° (W) 22:19:03 145.822/145.860
QB50P2 26 Nov 22:13:06 22:16:04 18° 92° (E) 22:19:01 145.880/145.840
VELOX 1 26 Nov 22:16:20 22:20:42 51° 260° (W) 22:25:04 145.980
ESTCUBE 1 26 Nov 22:17:31 22:22:01 65° 73° (ENE) 22:26:34 437.505/2401.250
DUCHIFAT 1 26 Nov 22:18:28 22:21:38 20° 93° (E) 22:24:46 145.980
AIST 2 26 Nov 22:20:59 22:24:15 21° 321° (NW) 22:27:32 435.215
DANDE 26 Nov 22:21:33 22:23:43 13° 70° (ENE) 22:26:07 436.750
TISAT 1 26 Nov 22:26:25 22:29:39 21° 65° (ENE) 22:32:54 437.305
NANOSAT C BR1 26 Nov 22:37:33 22:41:22 32° 97° (E) 22:45:09 145.865
SPROUT 26 Nov 22:38:27 22:41:57 25° 66° (ENE) 22:45:28 437.525
AISAT 26 Nov 22:43:51 22:47:40 27° 265° (W) 22:51:29 437.250
QB50P1 26 Nov 22:47:26 22:51:27 41° 98° (E) 22:55:26 145.935-145.965
FUNcube-1 26 Nov 22:49:22 22:51:55 16° 269° (W) 22:54:27 145.935
CUBEBUG 1 26 Nov 22:52:53 22:57:15 57° 259° (W) 23:01:39 437.445
BUGSAT 1 26 Nov 22:53:54 22:57:45 39° 98° (E) 23:01:33 437.445
TIGRISAT 26 Nov 22:55:12 22:59:38 73° 102° (ESE) 23:04:09 435.000
UNISAT 6 26 Nov 23:09:21 23:13:48 80° 285° (WNW) 23:18:20 437.425
50 SAT 26 Nov 23:10:32 23:13:07 16° 268° (W) 23:15:42 437.505
POPSAT HIP 1 26 Nov 23:12:13 23:16:27 77° 103° (ESE) 23:20:40 437.405
CUSAT 1 26 Nov 23:33:10 23:37:43 68° 79° (E) 23:43:53 437.405
MaSat-1 26 Nov 23:34:24 23:36:08 18° 55° (NE) 23:37:54 437.345
ITUPSAT 1 26 Nov 23:36:00 23:39:32 21° 62° (ENE) 23:43:05 437.325
ANTELSAT 26 Nov 23:38:27 23:42:37 41° 290° (WNW) 23:46:53 437.575/2403.000
ISS 26 Nov 23:45:30 23:48:46 72° 148° (SSE) 23:52:03 145.825
SWISSCUBE 26 Nov 23:46:00 23:50:02 27° 65° (ENE) 23:54:04 437.505
POLYITAN 1 26 Nov 23:46:30 23:50:32 45° 289° (WNW) 23:54:34 437.675
QB50P2 26 Nov 23:48:11 23:52:12 43° 289° (WNW) 23:56:12 145.880/145.840
DUCHIFAT 1 26 Nov 23:53:44 23:57:39 38° 290° (WNW) 00:01:33 145.980
AUBIESAT-1 26 Nov 23:55:19 23:59:21 52° 66° (ENE) 00:03:46 437.475
ESTCUBE 1 26 Nov 23:56:55 23:59:21 14° 270° (W) 00:01:47 437.505/2401.250
M-CUBED/EXP-1 PRIME 27 Nov 00:01:06 00:05:12 65° 68° (ENE) 00:09:42 437.505
TISAT 1 27 Nov 00:01:16 00:05:16 39° 262° (W) 00:09:17 437.305
DANDE 27 Nov 00:02:53 00:07:18 78° 261° (W) 00:13:21 436.750
RS-15 27 Nov 00:04:28 00:15:33 63° 46° (NE) 00:27:05 29.354- 29.394
NANOSAT C BR1 27 Nov 00:13:41 00:17:08 25° 294° (WNW) 00:20:34 145.865
SPROUT 27 Nov 00:13:58 00:17:54 34° 263° (W) 00:21:52 437.525
BEESAT 27 Nov 00:16:11 00:20:46 47° 70° (ENE) 00:25:23 436.000
QB50P1 27 Nov 00:23:59 00:27:05 20° 296° (WNW) 00:30:10 145.935-145.965
Oscar 19 27 Nov 00:26:34 00:29:05 14° 88° (E) 00:31:36 437.125/150
BUGSAT 1 27 Nov 00:30:02 00:33:01 20° 296° (WNW) 00:35:58 437.445
KKS-1 27 Nov 00:30:37 00:33:09 15° 61° (ENE) 00:35:42 437.445
TIGRISAT 27 Nov 00:33:39 00:35:52 14° 299° (WNW) 00:38:06 435.000
UNISAT 6 27 Nov 00:49:40 00:49:52 10° 302° (WNW) 00:50:04 437.425
POPSAT HIP 1 27 Nov 00:50:11 00:51:46 12° 300° (WNW) 00:53:21 437.405
MaSat-1 27 Nov 01:09:35 01:10:28 12° 251° (WSW) 01:11:21 437.345
ITUPSAT 1 27 Nov 01:12:22 01:17:04 52° 260° (W) 01:21:48 437.325
CUSAT 1 27 Nov 01:17:48 01:20:44 16° 269° (W) 01:24:08 437.405
YUBILEINY 27 Nov 01:18:20 01:25:30 29° 81° (E) 01:32:38 435.215
ITAMSAT 1 27 Nov 01:21:04 01:24:23 17° 90° (E) 01:27:41 435.822/435.867
ISS 27 Nov 01:22:39 01:25:38 31° 347° (NNW) 01:28:38 145.825
STARS 27 Nov 01:22:48 01:26:42 32° 68° (ENE) 01:30:38 437.465
SWISSCUBE 27 Nov 01:23:16 01:27:44 38° 262° (W) 01:32:14 437.505
AUBIESAT-1 27 Nov 01:31:59 01:34:44 17° 265° (W) 01:37:39 437.475
M-CUBED/EXP-1 PRIME 27 Nov 01:38:41 01:40:49 14° 267° (W) 01:43:01 437.505
BEESAT 27 Nov 01:55:14 01:58:51 21° 267° (W) 02:02:30 436.000
Gurwin Techsat 1B 27 Nov 01:58:07 02:02:15 23° 92° (E) 02:06:21 435.225
Oscar 19 27 Nov 02:03:52 02:09:03 81° 286° (WNW) 02:14:14 437.125/150
KKS-1 27 Nov 02:04:53 02:09:18 65° 258° (WSW) 02:13:45 437.445
RS-15 27 Nov 02:17:16 02:27:36 45° 250° (WSW) 02:38:23 29.354- 29.394
SO-50 27 Nov 02:28:18 02:30:51 15° 109° (ESE) 02:33:27 436.795
BEESAT 3 27 Nov 02:29:28 02:30:37 11° 29° (NNE) 02:31:46 437.485
AO-7 27 Nov 02:31:05 02:31:52 10° 83° (E) 02:32:39 29.400- 29.500
BEESAT 2 27 Nov 02:45:08 02:47:06 13° 31° (NNE) 02:49:03 435.950
PCSat 27 Nov 02:57:35 03:01:50 23° 40° (NE) 03:06:03 145.827
ITAMSAT 1 27 Nov 02:59:12 03:04:21 66° 288° (WNW) 03:09:28 435.822/435.867
STARS 27 Nov 02:59:30 03:03:13 26° 265° (W) 03:06:57 437.465
ISS 27 Nov 03:00:02 03:02:54 27° 7° (N) 03:05:46 145.825
HORYU 2 27 Nov 03:11:49 03:16:09 45° 99° (E) 03:20:28 437.375
YUBILEINY 27 Nov 03:12:51 03:21:36 67° 282° (WNW) 03:30:21 435.215
MOZHAYETS 4 27 Nov 03:17:26 03:21:03 23° 65° (ENE) 03:24:41
AIST 2 27 Nov 03:23:44 03:26:16 15° 34° (NNE) 03:28:47 435.215
Gurwin Techsat 1B 27 Nov 03:37:21 03:42:31 52° 290° (WNW) 03:47:38 435.225
Oscar 19 27 Nov 03:45:22 03:47:34 13° 304° (NW) 03:49:47 437.125/150
BEESAT 3 27 Nov 04:05:45 04:09:51 49° 50° (NE) 04:13:54 437.485
SO-50 27 Nov 04:06:15 04:10:47 72° 308° (NW) 04:15:29 436.795
PRISM 27 Nov 04:08:04 04:10:31 15° 61° (ENE) 04:12:58 437.425
AO-7 27 Nov 04:18:13 04:26:28 58° 103° (ESE) 04:34:39 29.400- 29.500
BEESAT 2 27 Nov 04:22:02 04:26:15 63° 52° (NE) 04:30:23 435.950
STRAND 1 27 Nov 04:22:58 04:24:38 12° 55° (NE) 04:26:17 437.568
ISS 27 Nov 04:36:40 04:39:58 67° 27° (NNE) 04:43:15 145.825
PCSat 27 Nov 04:40:25 04:45:51 77° 241° (WSW) 04:51:15 145.827
ITAMSAT 1 27 Nov 04:41:55 04:42:52 11° 307° (NW) 04:43:48 435.822/435.867
JAS-2 27 Nov 04:42:15 04:48:36 34° 92° (E) 04:54:15 435.910
HORYU 2 27 Nov 04:49:12 04:52:32 21° 297° (WNW) 04:55:52 437.375
MOZHAYETS 4 27 Nov 04:53:41 04:58:02 41° 262° (W) 05:02:26
AIST 2 27 Nov 05:01:18 05:05:38 78° 54° (NE) 05:09:54 435.215
CUBESAT XI-V 27 Nov 05:01:55 05:05:32 22° 64° (ENE) 05:09:08 437.345
YUBILEINY 27 Nov 05:15:33 05:20:23 16° 306° (NW) 05:25:14 435.215
O/OREOS (USA 219) 27 Nov 05:15:41 05:19:37 31° 105° (ESE) 05:23:33 437.305
PRISM 27 Nov 05:41:27 05:45:36 59° 259° (WSW) 05:49:49 437.425
BEESAT 3 27 Nov 05:44:44 05:47:45 20° 248° (WSW) 05:50:45 437.485
Cubesat XI-IV 27 Nov 05:47:06 05:51:40 28° 95° (E) 05:56:12 437.490
SO-50 27 Nov 05:49:19 05:52:12 16° 329° (NNW) 05:55:08 436.795
STRAND 1 27 Nov 05:57:48 06:02:55 73° 73° (ENE) 06:08:04 437.568
BEESAT 2 27 Nov 06:01:38 06:04:03 15° 250° (WSW) 06:06:27 435.950
AIST 1 27 Nov 06:01:55 06:05:55 33° 74° (ENE) 06:09:52
AO-7 27 Nov 06:11:28 06:18:55 38° 303° (WNW) 06:26:23 29.400- 29.500
ISS 27 Nov 06:13:51 06:16:20 20° 224° (SW) 06:18:49 145.825
PCSat 27 Nov 06:26:54 06:28:19 11° 259° (WSW) 06:29:43 145.827
CUTE-I 27 Nov 06:27:43 06:33:01 63° 102° (ESE) 06:38:16 437.470
